Wilmington, DE

9:47 AM EDT on September 26, 2017 (GMT -0400)
New Castle County

Weather History for KILG - January, 2014

Change the Weather History Date:

Saturday, January 25, 2014

  Actual Average Record
Temperature  
Mean Temperature 23 °F 32 °F  
Max Temperature 28 °F 40 °F 67 °F (1967)
Min Temperature 17 °F 25 °F -1 °F (1945)
Degree Days  
Heating Degree Days 42 33  
Month to date heating degree days 899 819  
Since 1 July heating degree days 2663 2596  
Cooling Degree Days 0 0  
Month to date cooling degree days 0 0  
Year to date cooling degree days 0 0  
Moisture  
Dew Point 13 °F    
Average Humidity 65    
Maximum Humidity 84    
Minimum Humidity 45    
Precipitation  
Precipitation 0.08 in 0.10 in 1.97 in (1978)
Month to date precipitation 3.16 2.42  
Year to date precipitation 3.16 2.42  
Snow  
Snow 1.00 in 0.20 in 10.00 in (2000)
Month to date snowfall 16.5 4.3  
Since 1 July snowfall 28.4 8.1  
Snow Depth 5.00 in    
Sea Level Pressure  
Sea Level Pressure 29.67 in    
Wind  
Wind Speed 11 mph (SSW)    
Max Wind Speed 23 mph    
Max Gust Speed 31 mph    
Visibility 6 miles    
Events Fog , Snow    
T = Trace of Precipitation, MM = Missing Value Source: NWS Daily Summary

Daily Weather History Graph

Daily Weather History Graph

Search for Another Location

Airport or City:

Trip Planner

Search our weather history database for the weather conditions in past years. The results will help you decide how hot, cold, wet, or windy it might be!

Date:

Astronomy

Jan. 25, 2014 Rise Set
Actual Time 7:16 AM EST 5:13 PM EST
Civil Twilight 6:47 AM EST 5:42 PM EST
Nautical Twilight 6:14 AM EST 6:15 PM EST
Astronomical Twilight 5:42 AM EST 6:47 PM EST
Moon 1:45 AM EST (1/25) 12:12 PM EST (1/25)
Length of Visible Light 10h 55m
Length of Day
9h 57m
Waning Crescent, 34% of the Moon is Illuminated
Jan 25
Waning Crescent
Jan 30
New
Feb 6
First Quarter
Feb 14
Full
Feb 22
Last Quarter

Hourly Weather History & Observations

Time (EST) Temp. Windchill Dew Point Humidity Pressure Visibility Wind Dir Wind Speed Gust Speed Precip Events Conditions
12:51 AM 19.0 °F 6.8 °F 3.0 °F 50% 30.07 in 10.0 mi South 11.5 mph - N/A   Clear
1:51 AM 19.0 °F 6.1 °F 3.9 °F 52% 30.04 in 10.0 mi South 12.7 mph - N/A   Clear
2:51 AM 18.0 °F 4.8 °F 3.9 °F 54% 30.00 in 10.0 mi South 12.7 mph - N/A   Clear
3:51 AM 19.0 °F 6.8 °F 3.0 °F 50% 29.94 in 10.0 mi South 11.5 mph - N/A   Clear
4:51 AM 19.0 °F 7.5 °F 3.0 °F 50% 29.91 in 10.0 mi South 10.4 mph - N/A   Clear
5:51 AM 21.0 °F 6.6 °F 3.9 °F 48% 29.87 in 10.0 mi SSW 17.3 mph - N/A   Clear
6:51 AM 21.9 °F 8.7 °F 5.0 °F 48% 29.84 in 10.0 mi South 15.0 mph - N/A   Clear
7:51 AM 21.9 °F 8.7 °F 6.1 °F 51% 29.80 in 10.0 mi South 15.0 mph 23.0 mph N/A   Clear
8:51 AM 23.0 °F 9.6 °F 6.1 °F 48% 29.77 in 10.0 mi SSW 16.1 mph - N/A   Partly Cloudy
9:51 AM 24.1 °F 12.0 °F 7.0 °F 48% 29.75 in 10.0 mi SSW 13.8 mph - N/A   Mostly Cloudy
10:36 AM 24.8 °F 10.0 °F 8.6 °F 50% 29.73 in 2.5 mi SSW 21.9 mph 31.1 mph 0.00 in Snow Light Snow
10:42 AM 23.0 °F 9.2 °F 12.2 °F 63% 29.73 in 0.8 mi SW 17.3 mph 31.1 mph 0.00 in Snow Light Snow
10:51 AM 21.9 °F 8.7 °F 15.1 °F 75% 29.72 in 0.5 mi SW 15.0 mph 24.2 mph 0.00 in Snow Snow
11:05 AM 21.2 °F 7.8 °F 17.6 °F 86% 29.71 in 0.2 mi SSW 15.0 mph - 0.01 in Fog , Snow Heavy Snow
11:28 AM 21.2 °F 7.8 °F 17.6 °F 86% 29.68 in 0.5 mi South 15.0 mph - 0.03 in Fog , Snow Snow
11:35 AM 21.2 °F 8.3 °F 17.6 °F 86% 29.67 in 0.5 mi SSW 13.8 mph - 0.04 in Fog , Snow Snow
11:51 AM 21.0 °F 7.6 °F 18.0 °F 88% 29.66 in 0.5 mi South 15.0 mph - 0.05 in Fog , Snow Snow
12:25 PM 21.2 °F 9.5 °F 17.6 °F 86% 29.61 in 1.2 mi SSW 11.5 mph - 0.02 in Snow Light Snow
12:36 PM 23.0 °F 11.7 °F 17.6 °F 80% 29.60 in 3.0 mi South 11.5 mph - 0.02 in Snow Light Snow
12:51 PM 23.0 °F 11.7 °F 18.0 °F 81% 29.60 in 9.0 mi SSW 11.5 mph - 0.02 in   Overcast
1:51 PM 24.1 °F 12.0 °F 18.0 °F 77% 29.56 in 3.0 mi SSW 13.8 mph 23.0 mph 0.00 in Snow Light Snow
1:56 PM 24.8 °F 12.9 °F 19.4 °F 80% 29.55 in 1.8 mi SSW 13.8 mph - 0.00 in Snow Light Snow
2:14 PM 24.8 °F 12.4 °F 17.6 °F 74% 29.54 in 2.5 mi SW 15.0 mph 19.6 mph 0.00 in Snow Light Snow
2:23 PM 24.8 °F 13.4 °F 17.6 °F 74% 29.54 in 3.0 mi SSW 12.7 mph - 0.00 in Snow Light Snow
2:33 PM 24.8 °F 12.9 °F 17.6 °F 74% 29.53 in 1.8 mi SSW 13.8 mph - 0.00 in Snow Light Snow
2:51 PM 24.1 °F 13.1 °F 19.0 °F 81% 29.53 in 1.0 mi SSW 11.5 mph - 0.00 in Snow Light Snow
3:39 PM 24.8 °F 13.4 °F 19.4 °F 80% 29.50 in 3.0 mi SSW 12.7 mph - 0.01 in Snow Light Snow
3:51 PM 24.1 °F 13.1 °F 19.0 °F 81% 29.51 in 9.0 mi SSW 11.5 mph - 0.01 in   Overcast
4:18 PM 24.8 °F 14.0 °F 19.4 °F 80% 29.50 in 10.0 mi SW 11.5 mph - 0.00 in   Mostly Cloudy
4:51 PM 24.1 °F 17.0 °F 17.1 °F 75% 29.50 in 10.0 mi SSW 5.8 mph - 0.00 in   Scattered Clouds
5:51 PM 23.0 °F 18.4 °F 16.0 °F 74% 29.50 in 10.0 mi SSW 3.5 mph - 0.00 in   Clear
6:51 PM 24.1 °F 16.0 °F 12.9 °F 62% 29.50 in 10.0 mi SW 6.9 mph - N/A   Scattered Clouds
7:51 PM 23.0 °F 17.0 °F 12.0 °F 63% 29.51 in 10.0 mi WSW 4.6 mph - N/A   Overcast
8:51 PM 23.0 °F 14.7 °F 12.0 °F 63% 29.51 in 10.0 mi WSW 6.9 mph - N/A   Partly Cloudy
9:51 PM 25.0 °F 17.1 °F 14.0 °F 63% 29.53 in 10.0 mi WSW 6.9 mph - N/A   Mostly Cloudy
10:51 PM 27.0 °F 18.0 °F 15.1 °F 61% 29.54 in 10.0 mi WSW 9.2 mph - N/A   Partly Cloudy
11:51 PM 26.1 °F 17.6 °F 16.0 °F 66% 29.58 in 10.0 mi West 8.1 mph - N/A   Partly Cloudy